(76963) = 1998 FZ141 = 2001 BX35

Discovered at Socorro on 2001-01-18 by LINEAR.

Orbit

Orbit type: Main Belt

Note: WebGL enabled browser required.

epoch2023-09-13.0
epoch JD2460200.5
perihelion date2020-11-02.66123
perihelion JD2459156.16123
argument of perihelion (°)70.43258
ascending node (°)7.08770
inclination (°)7.17340
eccentricity0.1177526
perihelion distance (AU)1.9788646
Tisserand w.r.t. Jupiter3.6
ΔV w.r.t. Earth (km/sec)9.0
semimajor axis (AU)2.2429815
mean anomaly (°)306.41267
mean daily motion (°/day)0.29340350
aphelion distance (AU)2.507
period (years)3.36
P-vector [x]0.21700418
P-vector [y]0.84228653
P-vector [z]0.49341928
Q-vector [x]-0.97604907
Q-vector [y]0.17923999
Q-vector [z]0.12329331
absolute magnitude16.65
phase slope0.15
uncertainty0
referenceMPEC 2024-A141
observations used844
oppositions15
arc length (days)12025
first opposition used1991
last opposition used2024
residual rms (arc-secs)0.77
perturbers coarse indicatorM-v
perturbers precise indicator003Ek
first observation date used1991-02-08.0
last observation date used2024-01-11.0
computer nameMPCLINUX
JD of orbit computation2456700.437749
perihelion JD uncertainty (days)1.3818E-04
argument of perihelion uncertainty (°)6.0210E-05
ascending node uncertainty (°)3.6054E-05
inclination uncertainty (°)6.3966E-06
eccentricity uncertainty 4.8902E-08
perihelion distance uncertainty (AU)1.1173E-07
Minimum Orbit Intersection Distances (in AU)
for orbit epoch: 2460200.5, reference: E2024-AE1
Mercury1.67196
Venus1.26613
Earth1.00592
Mars0.42906
Jupiter2.71295
Saturn7.08737
Uranus16.1863
Neptune27.7175

Observations

867 total observations over interval: 1991 02 08.49342 – 2024 01 11.088024
These data are available for download (format description).

Date (UT) J2000 RA J2000 Dec Magn Location Ref
1991 02 08.49342 10 05 14.38 +21 52 20.6 20.3 V 691 – Steward Observatory, Kitt Peak-Spacewatch MPS 78062
1991 02 08.51601 10 05 12.77 +21 52 24.2 20.5 V 691 – Steward Observatory, Kitt Peak-Spacewatch MPS 78062
1991 02 08.53336 10 05 11.54 +21 52 27.5 20.4 V 691 – Steward Observatory, Kitt Peak-Spacewatch MPS 78062
1996 09 22.38566 00 05 33.46 -01 12 13.8   691 – Steward Observatory, Kitt Peak-Spacewatch MPS 26833
1996 09 22.41550 00 05 31.44 -01 12 17.4 19.1 V 691 – Steward Observatory, Kitt Peak-Spacewatch MPS 26833
1996 09 22.44006 00 05 29.78 -01 12 21.1   691 – Steward Observatory, Kitt Peak-Spacewatch MPS 26833
1998 03 29.28117 12 29 32.88 -03 24 54.4 18.8   704 – Lincoln Laboratory ETS, New Mexico MPS 1736
1998 03 29.30157 12 29 31.41 -03 24 49.6 19.2   704 – Lincoln Laboratory ETS, New Mexico MPS 1736
1998 03 29.32168 12 29 29.91 -03 24 44.8 19.4   704 – Lincoln Laboratory ETS, New Mexico MPS 1736
1998 03 29.34205 12 29 28.69 -03 24 44.4 19.7   704 – Lincoln Laboratory ETS, New Mexico MPS 1736
1998 04 01.23046 12 26 19.24 -03 15 42.3 19.7   704 – Lincoln Laboratory ETS, New Mexico MPS 1736
1998 04 01.25055 12 26 17.76 -03 15 42.0 19.4   704 – Lincoln Laboratory ETS, New Mexico MPS 1736
1998 04 01.27058 12 26 16.54 -03 15 36.8 20.0   704 – Lincoln Laboratory ETS, New Mexico MPS 1736
1998 04 01.29079 12 26 15.10 -03 15 33.9 20.0   704 – Lincoln Laboratory ETS, New Mexico MPS 1736
2000 12 29.36885 09 33 09.75 +26 41 45.2 19.1 R 699 – Lowell Observatory-LONEOS MPS 26833
2000 12 29.39418 09 33 09.20 +26 41 50.7   699 – Lowell Observatory-LONEOS MPS 26833
2000 12 29.41946 09 33 08.56 +26 41 57.7   699 – Lowell Observatory-LONEOS MPS 26833
2000 12 29.44469 09 33 08.05 +26 42 02.8   699 – Lowell Observatory-LONEOS MPS 26833
2001 01 18.34463 09 18 33.48 +28 06 30.0 18.7   704 – Lincoln Laboratory ETS, New Mexico MPS 25714
2001 01 18.36017 09 18 32.43 +28 06 35.2 19.1   704 – Lincoln Laboratory ETS, New Mexico MPS 25714
2001 01 18.37563 09 18 31.39 +28 06 38.0 19.5   704 – Lincoln Laboratory ETS, New Mexico MPS 25714
2001 01 24.42273 09 11 40.72 +28 27 41.1 19.2   704 – Lincoln Laboratory ETS, New Mexico MPS 25714
2001 01 24.43770 09 11 39.64 +28 27 43.0 19.2   704 – Lincoln Laboratory ETS, New Mexico MPS 25714
2001 01 24.45299 09 11 38.45 +28 27 45.3 19.2   704 – Lincoln Laboratory ETS, New Mexico MPS 25714
2001 01 25.39030 09 10 31.49 +28 30 31.7 19.0   704 – Lincoln Laboratory ETS, New Mexico MPS 25714
2001 01 25.40541 09 10 30.46 +28 30 35.5 19.7   704 – Lincoln Laboratory ETS, New Mexico MPS 25714
2001 01 25.42064 09 10 29.26 +28 30 36.9 19.4   704 – Lincoln Laboratory ETS, New Mexico MPS 25714
2001 01 25.43567 09 10 28.16 +28 30 40.2 19.2   704 – Lincoln Laboratory ETS, New Mexico MPS 25714
2001 01 25.45172 09 10 26.98 +28 30 42.6 19.0   704 – Lincoln Laboratory ETS, New Mexico MPS 25714
2001 02 01.22141 09 02 10.00 +28 45 34.3 18.6 R 699 – Lowell Observatory-LONEOS MPS 25714
2001 02 01.26795 09 02 06.45 +28 45 39.6   699 – Lowell Observatory-LONEOS MPS 25714
2001 02 01.31704 09 02 02.69 +28 45 44.5   699 – Lowell Observatory-LONEOS MPS 25714
2001 02 01.36527 09 01 58.95 +28 45 49.0   699 – Lowell Observatory-LONEOS MPS 25714
2001 02 16.22919 08 44 59.30 +28 42 11.4 18.9   704 – Lincoln Laboratory ETS, New Mexico MPS 26833
2001 02 16.24311 08 44 58.41 +28 42 10.1 19.3   704 – Lincoln Laboratory ETS, New Mexico MPS 26833
2001 02 16.25703 08 44 57.59 +28 42 08.5 18.6   704 – Lincoln Laboratory ETS, New Mexico MPS 26833
2001 02 16.27096 08 44 56.74 +28 42 06.8 19.2   704 – Lincoln Laboratory ETS, New Mexico MPS 26833
2001 02 16.28489 08 44 55.96 +28 42 04.7 19.4   704 – Lincoln Laboratory ETS, New Mexico MPS 26833
2003 10 19.46801 03 46 14.01 +27 51 13.8 18.7   644 – Palomar Mountain/NEAT MPS 87873
2003 10 19.47508 03 46 13.78 +27 51 15.9 18.5   644 – Palomar Mountain/NEAT MPS 87873
2003 10 19.47936 03 46 13.63 +27 51 17.2 18.7   644 – Palomar Mountain/NEAT MPS 87873
2003 10 19.48640 03 46 13.39 +27 51 19.2 18.6   644 – Palomar Mountain/NEAT MPS 87873
2003 10 19.49061 03 46 13.21 +27 51 20.4 18.6   644 – Palomar Mountain/NEAT MPS 87873
2003 10 19.49763 03 46 12.99 +27 51 22.4 18.4   644 – Palomar Mountain/NEAT MPS 87873
2003 10 22.31060 03 44 30.67 +28 05 01.1 19.8   704 – Lincoln Laboratory ETS, New Mexico MPS 87873
2003 10 22.33372 03 44 29.52 +28 05 06.5 20.0   704 – Lincoln Laboratory ETS, New Mexico MPS 87873
2003 10 22.34576 03 44 29.08 +28 05 07.6 20.3   704 – Lincoln Laboratory ETS, New Mexico MPS 87873
2003 10 22.35729 03 44 28.58 +28 05 13.0 19.7   704 – Lincoln Laboratory ETS, New Mexico MPS 87873
2003 10 30.28581 03 38 02.83 +28 36 35.0 18.7   704 – Lincoln Laboratory ETS, New Mexico MPS 89345
2003 10 30.29793 03 38 02.13 +28 36 37.1 19.4   704 – Lincoln Laboratory ETS, New Mexico MPS 89345
2003 10 30.31022 03 38 01.41 +28 36 39.6 19.1   704 – Lincoln Laboratory ETS, New Mexico MPS 89345
2003 10 30.32235 03 38 00.62 +28 36 42.6 18.9   704 – Lincoln Laboratory ETS, New Mexico MPS 89345
2003 11 03.31205 03 34 00.21 +28 48 02.5 19.1   704 – Lincoln Laboratory ETS, New Mexico MPS 90421
2003 11 03.32393 03 33 59.37 +28 48 03.6 19.5   704 – Lincoln Laboratory ETS, New Mexico MPS 90421
2003 11 03.33595 03 33 58.58 +28 48 05.6 19.1   704 – Lincoln Laboratory ETS, New Mexico MPS 90421
2003 11 03.34783 03 33 57.81 +28 48 06.6 19.4   704 – Lincoln Laboratory ETS, New Mexico MPS 90421
2003 11 03.35987 03 33 57.00 +28 48 09.2 19.2   704 – Lincoln Laboratory ETS, New Mexico MPS 90421
2003 11 05.25181 03 31 54.78 +28 52 20.1 18.5 R 699 – Lowell Observatory-LONEOS MPS 93644
2003 11 05.27271 03 31 53.07 +28 52 22.4   699 – Lowell Observatory-LONEOS MPS 93644
2003 11 05.29365 03 31 51.67 +28 52 26.2   699 – Lowell Observatory-LONEOS MPS 93644
2003 11 05.31447 03 31 50.24 +28 52 29.7   699 – Lowell Observatory-LONEOS MPS 93644
2003 11 19.25554 03 15 11.79 +28 59 49.2 19.7   704 – Lincoln Laboratory ETS, New Mexico MPS 90924
2003 11 19.26810 03 15 10.78 +28 59 48.3 20.6   704 – Lincoln Laboratory ETS, New Mexico MPS 90924
2003 11 19.28065 03 15 09.55 +28 59 48.8 19.9   704 – Lincoln Laboratory ETS, New Mexico MPS 90924
2003 11 19.29312 03 15 08.84 +28 59 47.7 19.9   704 – Lincoln Laboratory ETS, New Mexico MPS 90924
2003 11 19.30582 03 15 07.79 +28 59 46.8 19.7   704 – Lincoln Laboratory ETS, New Mexico MPS 90924
2003 11 24.29962 03 09 10.97 +28 52 50.9 18.5 V 703 – Catalina Sky Survey MPS 91745
2003 11 24.31101 03 09 10.10 +28 52 50.5 18.3 V 703 – Catalina Sky Survey MPS 91745
2003 11 24.32237 03 09 09.33 +28 52 47.6 18.5 V 703 – Catalina Sky Survey MPS 91745
2003 11 24.33372 03 09 08.48 +28 52 48.1 19.3 V 703 – Catalina Sky Survey MPS 91745
2003 12 04.24006 02 58 51.99 +28 28 49.7 19.2   704 – Lincoln Laboratory ETS, New Mexico MPS 92659
2003 12 04.25211 02 58 51.29 +28 28 47.1 19.2   704 – Lincoln Laboratory ETS, New Mexico MPS 92659
2003 12 04.26434 02 58 50.58 +28 28 46.0 18.9   704 – Lincoln Laboratory ETS, New Mexico MPS 92659
2003 12 17.19416 02 50 28.17 +27 50 01.2 18.8   644 – Palomar Mountain/NEAT MPS 93644
2003 12 17.21484 02 50 27.64 +27 49 57.6 19.1   644 – Palomar Mountain/NEAT MPS 93644
2003 12 17.23543 02 50 27.11 +27 49 54.1 19.5   644 – Palomar Mountain/NEAT MPS 93644
2003 12 18.20674 02 50 05.94 +27 47 07.9 18.8   704 – Lincoln Laboratory ETS, New Mexico MPS 93644
2003 12 18.21379 02 50 05.72 +27 47 07.5 18.4 V 703 – Catalina Sky Survey MPS 93644
2003 12 18.21969 02 50 05.57 +27 47 05.5 19.1   704 – Lincoln Laboratory ETS, New Mexico MPS 93644
2003 12 18.22738 02 50 05.48 +27 47 05.6 18.9 V 703 – Catalina Sky Survey MPS 93644
2003 12 18.23626 02 50 05.23 +27 47 02.7 19.2   704 – Lincoln Laboratory ETS, New Mexico MPS 93644
2003 12 18.24095 02 50 05.14 +27 47 02.3 17.4 V 703 – Catalina Sky Survey MPS 93644
2003 12 18.24991 02 50 04.89 +27 47 00.3 19.6   704 – Lincoln Laboratory ETS, New Mexico MPS 93644
2003 12 18.25466 02 50 04.85 +27 46 58.4 18.8 V 703 – Catalina Sky Survey MPS 93644
2003 12 18.26289 02 50 04.56 +27 46 58.1 19.5   704 – Lincoln Laboratory ETS, New Mexico MPS 93644
2004 01 13.18384 02 55 23.67 +27 06 29.8 19.3 V 703 – Catalina Sky Survey MPS 96585
